User: anonymous   Login
Location: Mason Neck State Park
(38.6428°N, 77.1981°W)
Time: 12:48:52
(UTC-04:00)
Language:

Cosmos 1400 Rocket - Orbit

View from above orbital plane
View from above orbital plane
View from above satellite
View from above satellite

Ground track
Ground track

The orbit data is extracted from the following two-line orbital elements,

1 13403U 82079B   16126.41254765  .00000381  00000-0  24114-4 0  9995
2 13403  81.1708  16.2581 0034258 179.1093 181.0198 15.06163457835331
Epoch (UTC): 05 May 2016 09:54:04
Eccentricity: 0.0034258
inclination: 81.1708°
perigee height: 524 km
apogee height: 571 km
right ascension of ascending node: 16.2581°
argument of perigee: 179.1093°
revolutions per day: 15.06163457
mean anomaly at epoch: 181.0198°
orbit number at epoch: 83533

The dashed part of the orbit path shows where the satellite is in the earth's shadow,  

DLR